Regional Weather Roundup
Issued by NWS

Home | Current Version | Previous Version | Graphics & Text | Print | Product List | Glossary On
Versions: 1 2 3 4 5 6 7 8 9 10 11 12 13 14 15 16 17 18 19 20 21 22 23 24 25 26 27 28 29 30 31 32 33 34 35 36 37 38 39 40 41 42 43 44 45 46 47 48 49 50
000
ASUS45 KSLC 021110
RWRUT
UTAH REGIONAL WEATHER ROUNDUP
NATIONAL WEATHER SERVICE SALT LAKE CITY UT
500 AM MDT SUN AUG 02 2015

UTZ001>011-023>025-021200-

NORTHERN UTAH

CITY           SKY/WX    TMP DP  RH WIND       PRES   REMARKS
BRIGHAM CITY   CLEAR     63  41  44 CALM      30.00S
HILL AFB       CLEAR     68  36  30 E18       30.02S
LOGAN          CLEAR     55  43  63 CALM      30.04S
OGDEN          CLEAR     67  38  34 S8        29.99S
PROVO AIRPORT  PTCLDY    66  37  34 SE12G17   30.03S
SALT LAKE CITY PTCLDY    67  42  40 SE6       29.98S
VERNAL         CLEAR     62  42  47 W5        30.10R
WENDOVER       MOCLDY    73  32  21 S3        30.00R
HEBER CITY     CLEAR     52  39  62 CALM      30.13S
WEST JORDAN    CLEAR     68  39  34 CALM      30.02R

$$

UTZ012>022-026-027-021200-

SOUTHERN/CENTRAL UTAH

CITY           SKY/WX    TMP DP  RH WIND       PRES   REMARKS
BLANDING       CLOUDY    62  59  89 NE6       30.26S
BRYCE CANYON   CLOUDY    56  48  74 W6        30.27S
CEDAR CITY     CLOUDY    67  50  54 SW5       30.09F
DELTA          CLOUDY    68  43  40 N5        30.02S
HANKSVILLE     MOCLDY    72  52  49 CALM      30.05S
MILFORD        CLOUDY    73  49  42 SW10      30.04S
MOAB/CYNLANDS  CLEAR     71  51  49 NE8       30.05S
PRICE          PTCLDY    70  49  47 E6        30.15R
ST GEORGE      SUNNY     77  52  41 SE6       29.96S
KANAB          CLOUDY    64  55  72 CALM      30.14F

$$

REGIONAL REPORTS     COLORADO/ARIZONA

CITY           SKY/WX    TMP DP  RH WIND       PRES   REMARKS
CRAIG, CO      CLEAR     50  42  74 CALM      30.19S
GRAND JUNCTION CLOUDY    70  52  52 E13       30.09S
RIFLE          MOCLDY    65  50  58 CALM      30.15S
MONTROSE       CLOUDY    65  54  67 S10       30.18F
CORTEZ         CLOUDY    63  58  83 CALM      30.19R
PAGE, AZ       CLOUDY    77  54  44 SE6       30.01F
GRAND CANYON   LGT RAIN  61  54  77 CALM      30.21F
KINGMAN        MOCLDY    70  55  59 E5        29.99F
FLAGSTAFF      CLOUDY    56  53  90 CALM      30.25F

$$

REGIONAL REPORTS    NEVADA/IDAHO/WYOMING

CITY           SKY/WX    TMP DP  RH WIND       PRES   REMARKS
LAS VEGAS, NV  PTCLDY    79  55  43 W6        29.87F
ELY            CLOUDY    67  43  41 E6        30.19F
ELKO           PTCLDY    61  39  44 CALM      30.10S
POCATELLO, ID  CLEAR     56  43  61 VRB5      30.03S
BURLEY         CLEAR     55  40  56 CALM      29.97S
EVANSTON, WY   PTCLDY    59  29  31 NE5       30.22F
ROCK SPRINGS   CLEAR     57  26  30 W8        30.19R
KEMMERER       PTCLDY    54  30  40 NW8       30.25S

$$



USA.gov is the U.S. government's official web portal to all federal, state and local government web resources and services.